Retour au catalogue

STARLINK-32401

ActifCommunicationsVLEO
NORAD 61865·PAYLOAD·🇺🇸 United States

Lancé Nov 7, 2024 depuis Cape Canaveral Space Force Station

Loading…

Prochains Passages (prochaines 24 heures)

TLE

FraisSource: CelesTrak SupGP

Époque: Sep 15, 2026, 02:53 UTC

1 61865C 24202W   26258.12062500 -.00022275  00000+0 -80709-3 0  2589
2 61865  43.0008 248.5369 0001426 271.6701 120.5471 15.27577975    13

Suivez STARLINK-32401 en temps réel avec AllMySat

Download on the App Store